[[{"header":{"parameterUnit":"m.s-1","parameterCategory":1,"la1":30.2991,"la2":30.254,"lo1":-89.0895,"lo2":-89.0444,"dy":0.0017,"dx":0.0017,"nx":28,"ny":28,"refTime":"2024-05-05T03:00:00:Z","depth":0,"parameterNumber":2,"parameterNumberName":"U-component_of_WINDS"},"data":[0,0,0,0,0,0,0,0,0,0,0,0,0,0,0,0,0,0,0,0,0,0,0,0,0,0,0,0,0,0,0,0,0,0,0,0,0,0,0,0,0,0,0,0,0,0,0,0,0,0,0,0,0,0,0,0,0,0,-1.5121,-1.5122,0,-1.5196,-1.5197,-1.5198,-1.521,-1.521,-1.5209,-1.5208,-1.5287,-1.5289,-1.5292,0,0,0,0,0,0,0,0,0,0,0,0,0,-1.499,-1.4992,-1.5121,-1.5122,-1.5123,-1.5196,-1.5197,-1.5198,-1.521,-1.521,-1.5209,-1.5208,-1.5286,-1.5289,-1.5292,0,0,0,0,0,0,0,0,0,0,0,0,0,-1.5054,-1.4993,-1.5121,-1.5138,-1.514,-1.5196,-1.5197,-1.5198,-1.5211,-1.521,-1.5209,-1.5208,-1.5285,-1.5288,-1.5292,-1.5337,0,0,-1.5305,-1.5307,0,0,0,0,0,0,0,0,-1.505,-1.5059,-1.5134,-1.5137,-1.5139,-1.5193,-1.518,-1.5245,-1.5211,-1.5184,-1.5208,-1.5207,-1.5256,-1.5262,-1.5279,-1.5341,-1.5344,-1.5305,-1.5308,-1.5309,-1.531,0,0,0,0,0,0,0,-1.5046,-1.5056,-1.5151,-1.5135,-1.5138,-1.5142,-1.515,-1.5192,-1.5225,-1.5186,-1.5187,-1.5196,-1.5257,-1.5275,-1.5281,-1.5345,-1.5305,-1.5309,-1.5311,-1.5313,-1.5448,-1.5449,0,0,0,0,0,0,-1.5038,-1.5052,-1.5148,-1.5153,-1.5091,-1.5145,-1.5154,-1.5177,-1.5224,-1.523,-1.5197,-1.5196,-1.5268,-1.5276,-1.5284,-1.5339,-1.5309,-1.5313,-1.5315,-1.5447,-1.5448,-1.5449,0,0,0,0,0,0,-1.5035,-1.5047,-1.5145,-1.5103,-1.5116,-1.5149,-1.5174,-1.5179,-1.5196,-1.5232,-1.5238,-1.5208,-1.5268,-1.5278,-1.5324,-1.5342,-1.5315,-1.5319,-1.5445,-1.5447,-1.5449,-1.545,0,0,0,0,0,0,-1.5031,-1.5046,-1.5062,-1.5103,-1.5118,-1.5184,-1.5175,-1.5181,-1.5203,-1.5203,-1.5245,-1.5251,-1.5268,-1.5318,-1.5328,-1.5347,-1.5322,-1.5444,-1.5446,-1.5448,-1.5448,-1.5451,-1.5454,0,0,0,0,0,-1.5027,-1.506,-1.5063,-1.5075,-1.5139,-1.5185,-1.5193,-1.5212,-1.5204,-1.5222,-1.5245,-1.5249,-1.5338,-1.5322,-1.5334,-1.5354,-1.5443,-1.5446,-1.5448,-1.5447,-1.5451,-1.5454,0,0,0,0,0,0,-1.5021,-1.5065,-1.507,-1.5117,-1.5147,-1.5187,-1.5209,-1.5215,-1.5249,-1.5247,-1.527,-1.5279,-1.5324,-1.5344,-1.5325,-1.54,-1.539,-1.5395,-1.5385,-1.5389,-1.5392,-1.5386,-1.5325,0,0,0,0,0,-1.5025,-1.5057,-1.5095,-1.5133,-1.5148,-1.5176,-1.5196,-1.5208,-1.524,-1.5253,-1.528,-1.5311,-1.5346,-1.5369,-1.5403,-1.5452,-1.5461,-1.5472,-1.5474,-1.5477,-1.548,-1.5508,-1.5513,-1.5458,-1.5458,-1.5458,0,0,-1.5033,-1.5062,-1.5081,-1.5132,-1.5157,-1.519,-1.5186,-1.5222,-1.5247,-1.5259,-1.5303,-1.5324,-1.5361,-1.5408,-1.543,-1.5426,-1.5498,-1.548,-1.5481,-1.5484,-1.5511,-1.5516,-1.5521,-1.546,-1.546,-1.5459,0,0,-1.5067,-1.5091,-1.5126,-1.5151,-1.5188,-1.5207,-1.5215,-1.5254,-1.5268,-1.5313,-1.5323,-1.5354,-1.5414,-1.5439,-1.546,-1.5504,-1.551,-1.5515,-1.553,-1.5556,-1.556,-1.5564,-1.558,-1.5585,-1.5519,-1.5519,-1.5519,0,-1.5073,-1.5123,-1.5143,-1.5178,-1.52,-1.5212,-1.5248,-1.5271,-1.5318,-1.5333,-1.5328,-1.5404,-1.5429,-1.5483,-1.5494,-1.551,-1.5521,-1.551,-1.5558,-1.5562,-1.5566,-1.5581,-1.5587,-1.5519,-1.5519,-1.5519,-1.5519,0,-1.5129,-1.5164,-1.5188,-1.5232,-1.5257,-1.5292,-1.5318,-1.5341,-1.5351,-1.5371,-1.5417,-1.5448,-1.5489,-1.5503,-1.5513,-1.5558,-1.5554,-1.5553,-1.5544,-1.5571,-1.5586,-1.5592,-1.552,-1.552,-1.552,-1.5519,0,0,-1.516,-1.5215,-1.5223,-1.5244,-1.5286,-1.5314,-1.535,-1.539,-1.5409,-1.5442,-1.5473,-1.5523,-1.5523,-1.5547,-1.556,-1.5583,-1.5616,-1.558,-1.5581,-1.5585,-1.5668,-1.5668,-1.5674,-1.562,-1.5622,-1.5622,-1.5665,0,-1.5198,-1.5262,-1.5281,-1.5335,-1.5367,-1.538,-1.5411,-1.5441,-1.546,-1.5491,-1.5513,-1.5549,-1.5545,-1.556,-1.5583,-1.5607,-1.5633,-1.5604,-1.565,-1.5651,-1.5639,-1.5682,-1.5682,-1.5721,-1.5671,-1.5672,-1.5672,0,-1.5251,-1.5283,-1.534,-1.5379,-1.5393,-1.5421,-1.5459,-1.5489,-1.5523,-1.5536,-1.5563,-1.5574,-1.5613,-1.5602,-1.5656,-1.5636,-1.5656,-1.567,-1.5672,-1.5677,-1.5663,-1.5688,-1.5733,-1.5739,-1.5682,-1.5681,-1.568,0,-1.5267,-1.5326,-1.5367,-1.5385,-1.5431,-1.545,-1.547,-1.5504,-1.5526,-1.556,-1.5575,-1.5613,-1.5634,-1.5663,-1.5685,-1.5675,-1.5737,-1.5727,-1.5749,-1.5748,-1.5761,-1.576,-1.581,-1.5774,-1.5774,-1.5774,-1.5774,0,-1.5307,-1.5342,-1.5375,-1.5401,-1.544,-1.5462,-1.55,-1.5521,-1.5551,-1.5581,-1.5595,-1.5623,-1.565,-1.5682,-1.57,-1.5742,-1.5751,-1.5763,-1.5767,-1.5762,-1.576,-1.5774,-1.5772,-1.5776,-1.5775,-1.5775,-1.5775,0,-1.5332,-1.5356,-1.5402,-1.5442,-1.5453,-1.548,-1.5515,-1.554,-1.556,-1.5599,-1.5609,-1.5641,-1.5679,-1.5704,-1.5753,-1.5765,-1.5811,-1.5815,-1.5799,-1.5801,-1.5821,-1.5819,-1.5883,-1.5892,-1.585,-1.585,-1.585,0,-1.5356,-1.5383,-1.5426,-1.5447,-1.5467,-1.5501,-1.5524,-1.5547,-1.5571,-1.5612,-1.5633,-1.5672,-1.5705,-1.5766,-1.5794,-1.5832,-1.5836,-1.5856,-1.5842,-1.5836,-1.5837,-1.5835,-1.5837,-1.5858,-1.5858,-1.5859,-1.5859,0,-1.5397,-1.5407,-1.544,-1.5477,-1.5504,-1.5534,-1.5565,-1.5582,-1.561,-1.5636,-1.5675,-1.5701,-1.5751,-1.579,-1.5831,-1.5852,-1.5861,-1.5863,-1.587,-1.5865,-1.5855,-1.586,-1.5805,-1.5862,-1.5861,-1.5861,-1.5861,-1.5861,-1.5422,-1.5446,-1.548,-1.5516,-1.5541,-1.557,-1.5596,-1.5619,-1.5652,-1.5694,-1.5706,-1.5747,-1.5781,-1.5837,-1.5859,-1.5892,-1.589,-1.59,-1.5902,-1.5904,-1.5904,-1.5849,-1.5899,-1.5899,-1.5899,-1.5899,-1.5899,0,-1.5463,-1.5485,-1.5518,-1.556,-1.5589,-1.5593,-1.5628,-1.5651,-1.5687,-1.5718,-1.575,-1.5796,-1.5834,-1.5864,-1.5904,-1.5924,-1.5929,-1.5934,-1.5933,-1.5938,-1.5904,-1.5894,-1.5929,-1.5929,-1.5929,-1.5929,-1.5929,-1.5929,-1.5488,-1.5529,-1.5544,-1.5598,-1.562,-1.566,-1.5679,-1.5705,-1.573,-1.578,-1.5812,-1.5831,-1.5863,-1.5904,-1.594,-1.5948,-1.5962,-1.5966,-1.5975,-1.5943,-1.594,-1.5937,-1.5927,-1.5969,-1.5969,-1.6005,-1.6005,-1.6006]},{"header":{"parameterUnit":"m.s-1","parameterCategory":1,"la1":30.2991,"la2":30.254,"lo1":-89.0895,"lo2":-89.0444,"dy":0.0017,"dx":0.0017,"nx":28,"ny":28,"refTime":"2024-05-05T03:00:00:Z","depth":0,"parameterNumber":3,"parameterNumberName":"V-component_of_WINDS"},"data":[0,0,0,0,0,0,0,0,0,0,0,0,0,0,0,0,0,0,0,0,0,0,0,0,0,0,0,0,0,0,0,0,0,0,0,0,0,0,0,0,0,0,0,0,0,0,0,0,0,0,0,0,0,0,0,0,0,0,3.6985,3.6986,0,3.7033,3.7033,3.7034,3.7033,3.7032,3.7032,3.7031,3.7075,3.7077,3.7079,0,0,0,0,0,0,0,0,0,0,0,0,0,3.6889,3.6891,3.6985,3.6986,3.6986,3.7033,3.7033,3.7034,3.7033,3.7032,3.7032,3.7031,3.7075,3.7077,3.7079,0,0,0,0,0,0,0,0,0,0,0,0,0,3.6933,3.6891,3.6985,3.6992,3.6993,3.7033,3.7033,3.7034,3.7033,3.7032,3.7031,3.703,3.7074,3.7077,3.7079,3.7114,0,0,3.7087,3.7088,0,0,0,0,0,0,0,0,3.693,3.6936,3.699,3.6991,3.6992,3.7026,3.7016,3.7061,3.7033,3.7018,3.7031,3.703,3.7059,3.7063,3.7074,3.7117,3.7118,3.7088,3.7089,3.709,3.7091,0,0,0,0,0,0,0,3.6927,3.6934,3.7004,3.6991,3.6992,3.6991,3.6996,3.7024,3.7043,3.7019,3.7019,3.7025,3.706,3.7072,3.7075,3.7119,3.7087,3.709,3.7091,3.7092,3.7193,3.7194,0,0,0,0,0,0,3.6924,3.6932,3.7002,3.7005,3.6959,3.6993,3.6999,3.7016,3.7043,3.7046,3.7026,3.7025,3.7067,3.7072,3.7077,3.712,3.709,3.7093,3.7094,3.7192,3.7194,3.7195,0,0,0,0,0,0,3.6922,3.693,3.7,3.6969,3.6978,3.6996,3.7015,3.7018,3.7029,3.7048,3.7051,3.7035,3.7067,3.7073,3.7106,3.7122,3.7094,3.7096,3.7191,3.7193,3.7194,3.7207,0,0,0,0,0,0,3.6919,3.6929,3.6944,3.6969,3.6979,3.703,3.7016,3.7019,3.7034,3.7034,3.7057,3.706,3.7067,3.7102,3.7108,3.7125,3.7098,3.719,3.7192,3.7194,3.7205,3.7209,3.7212,0,0,0,0,0,3.6915,3.6944,3.6944,3.6953,3.6998,3.7031,3.7036,3.7045,3.7036,3.705,3.7062,3.7059,3.7119,3.7105,3.7112,3.713,3.7189,3.7191,3.7193,3.7204,3.7208,3.7212,0,0,0,0,0,0,3.6918,3.6948,3.6948,3.6987,3.7006,3.7031,3.7049,3.7049,3.7071,3.7069,3.7077,3.7082,3.7115,3.7126,3.711,3.7166,3.7152,3.7156,3.7158,3.7162,3.7165,3.7162,3.7101,0,0,0,0,0,3.6924,3.695,3.6973,3.7004,3.7015,3.703,3.7044,3.705,3.707,3.7078,3.7092,3.711,3.7133,3.7148,3.717,3.7207,3.7212,3.7223,3.7226,3.7229,3.7232,3.7252,3.7257,3.7203,3.7203,3.7203,0,0,3.6935,3.6954,3.6969,3.7006,3.7022,3.7047,3.7037,3.7064,3.7082,3.7081,3.7114,3.7125,3.7146,3.7181,3.7197,3.719,3.7248,3.7232,3.7234,3.7236,3.7255,3.726,3.7265,3.7204,3.7204,3.7204,0,0,3.6968,3.6985,3.7013,3.703,3.7055,3.7065,3.7072,3.7097,3.7105,3.7138,3.7138,3.7159,3.7198,3.7213,3.7226,3.7266,3.7264,3.7273,3.729,3.731,3.7314,3.7318,3.7332,3.7337,3.7276,3.7276,3.7276,0,3.6977,3.7017,3.7027,3.7055,3.7071,3.7073,3.7101,3.7116,3.7147,3.7157,3.715,3.72,3.7214,3.7253,3.7263,3.7273,3.7281,3.727,3.7313,3.7317,3.7321,3.7334,3.734,3.7277,3.7277,3.7277,3.7277,0,3.7028,3.7055,3.7075,3.7107,3.7124,3.7152,3.7166,3.7182,3.7186,3.7196,3.723,3.7247,3.7273,3.7282,3.7285,3.7322,3.7317,3.7312,3.7298,3.7327,3.734,3.7345,3.7278,3.7278,3.7278,3.7277,0,0,3.7064,3.7102,3.7109,3.7123,3.7151,3.7172,3.7199,3.7226,3.7241,3.7261,3.7284,3.7318,3.7313,3.7328,3.7332,3.735,3.738,3.7342,3.7343,3.7349,3.7421,3.7425,3.7431,3.7379,3.738,3.7381,3.7419,0,3.71,3.7151,3.7161,3.7204,3.723,3.7232,3.7256,3.7275,3.7286,3.7308,3.7319,3.7343,3.7335,3.7344,3.7361,3.7373,3.7395,3.737,3.74,3.7401,3.7394,3.7438,3.7442,3.7478,3.7425,3.7425,3.7426,0,3.7148,3.7173,3.7219,3.7245,3.7256,3.7277,3.7303,3.7324,3.7346,3.7352,3.7369,3.7372,3.74,3.7386,3.7423,3.7406,3.7419,3.7427,3.7428,3.7431,3.7415,3.7442,3.7489,3.7494,3.7434,3.7433,3.7433,0,3.717,3.7214,3.7248,3.726,3.7291,3.7306,3.7319,3.734,3.7355,3.7377,3.7388,3.7412,3.7425,3.7444,3.7453,3.7442,3.749,3.7476,3.7495,3.7495,3.7505,3.7504,3.7555,3.7513,3.7513,3.7513,3.7513,0,3.7209,3.7238,3.7258,3.7279,3.7311,3.7322,3.7352,3.7365,3.7384,3.7406,3.7409,3.7429,3.744,3.7462,3.7469,3.7499,3.7505,3.751,3.7512,3.751,3.751,3.7519,3.7516,3.7514,3.7514,3.7514,3.7514,0,3.7239,3.7254,3.7291,3.7317,3.7325,3.7347,3.7369,3.7388,3.7399,3.7428,3.7435,3.7451,3.7477,3.7489,3.752,3.7525,3.7559,3.7559,3.7553,3.7553,3.7571,3.757,3.7629,3.7638,3.7591,3.7591,3.7591,0,3.7263,3.7285,3.7315,3.7331,3.7345,3.7371,3.7387,3.7399,3.7416,3.7443,3.7459,3.7485,3.7507,3.7548,3.7562,3.7586,3.7586,3.7606,3.759,3.7588,3.7587,3.7585,3.7588,3.7608,3.7609,3.7609,3.761,0,3.7304,3.7311,3.7336,3.7364,3.7384,3.7406,3.7427,3.744,3.7454,3.7473,3.7501,3.7518,3.7551,3.7577,3.7602,3.7614,3.7614,3.7615,3.762,3.7619,3.7614,3.7617,3.756,3.7613,3.7613,3.7612,3.7612,3.7612,3.7332,3.7352,3.7377,3.7404,3.7422,3.7442,3.7462,3.7476,3.75,3.7529,3.7534,3.7563,3.7584,3.7618,3.7631,3.7653,3.7648,3.7656,3.7658,3.766,3.7662,3.7611,3.7658,3.7658,3.7657,3.7657,3.7657,0,3.7374,3.739,3.7416,3.7446,3.7468,3.7468,3.7492,3.7509,3.7536,3.7556,3.7578,3.7609,3.7635,3.7651,3.7677,3.7691,3.7692,3.7697,3.7696,3.7699,3.7664,3.7657,3.7696,3.7696,3.7696,3.7696,3.7696,3.7696,3.7398,3.7433,3.7442,3.7485,3.75,3.753,3.7544,3.7562,3.7578,3.7614,3.7636,3.7647,3.7666,3.7693,3.7715,3.772,3.7729,3.7735,3.7738,3.7706,3.7701,3.7698,3.7691,3.7736,3.7736,3.7771,3.7771,3.7772]}]]